Regional Weather Roundup
Issued by NWS

Home | Current Version | Previous Version | Graphics & Text | Print | Product List | Glossary Off
Versions: 1 2 3 4 5 6 7 8 9 10 11 12 13 14 15 16 17 18 19 20 21 22 23 24 25 26 27 28 29 30 31 32 33 34 35 36 37 38 39 40 41 42 43 44 45 46 47 48 49 50

000
ASUS43 KMKX 202021
RWRWI

WISCONSIN REGIONAL WEATHER ROUNDUP
NATIONAL WEATHER SERVICE MILWAUKEE/SULLIVAN WI
300 PM CDT SUN AUG 20 2017

NOTE: "FAIR" INDICATES FEW OR NO CLOUDS BELOW 12,000 FEET WITH NO
SIGNIFICANT WEATHER AND/OR OBSTRUCTIONS TO VISIBILITY.

WIZ001-002-006>008-014>016-023>028-202100-
NORTHWEST WISCONSIN

CITY           SKY/WX    TMP DP  RH WIND       PRES   REMARKS
SUPERIOR ARPT    N/A     78  64  61 W9        29.89S HX  80
ASHLAND        PTSUNNY   81  67  62 W14       29.89S HX  83
HAYWARD        PTSUNNY   78  66  66 VRB5      29.92F HX  80
SIREN          PTSUNNY   80  64  57 W8        29.93S HX  82
CUMBERLAND     MOSUNNY   77  64  65 SW9       29.94F
RICE LAKE      CLOUDY    79  68  69 W7        29.95S HX  81
CHETEK         PTSUNNY   80  70  71 MISG      29.93F HX  83
LADYSMITH      MOSUNNY   79  67  66 W13       29.96S HX  82
EAU CLAIRE     SUNNY     84  64  50 SW17      29.92F HX  85
MENOMONIE      MOSUNNY   84  66  54 S9        29.93S HX  87
NEW RICHMOND   PTSUNNY   82  66  57 W8        29.94S HX  84
OSCEOLA        PTSUNNY   81  67  63 W5        29.96S HX  83
$$

WIZ003>005-009-010-017-018-202100-
NORTH CENTRAL WISCONSIN

CITY           SKY/WX    TMP DP  RH WIND       PRES   REMARKS
MANITOWISH WTR PTSUNNY   78  67  69 W9        29.92R HX  81
ARBOR VITAE    SUNNY     82  68  60 W9G18     29.92S HX  85
WOODRUFF       SUNNY     82  68  60 W9G18     29.92S HX  85
RHINELANDER    SUNNY     81  67  62 SW12      29.94F HX  83
EAGLE RIVER    SUNNY     80  63  55 SW9G17    29.92F HX  82
LAND O LAKES   SUNNY     81  64  56 SW9       29.93S HX  83
PHILLIPS       PTSUNNY   79  68  69 SW14G20   29.93S HX  81
TOMAHAWK         N/A     80  65  59 SW5       29.94F HX  82
MEDFORD        MOSUNNY   79  64  60 SW15G25   29.96S HX  80
MERRILL        SUNNY     82  66  57 SW13G24   29.95F HX  85
$$

WIZ029-030-035-036-043>047-202100-
CENTRAL WISCONSIN

CITY           SKY/WX    TMP DP  RH WIND       PRES   REMARKS
WAUSAU         SUNNY     82  63  52 SW17G25   29.94F HX  83
MOSINEE        MOSUNNY   81  66  61 SW12G18   29.97F HX  83
MARSHFIELD     SUNNY     82  63  52 W14       29.96F HX  83
STEVENS POINT  CLOUDY    78  64  60 W10       29.98S HX  80
WAUPACA        CLOUDY    80  68  66 S7        29.97F HX  82
WAUTOMA        CLOUDY    82  66  58 W9        29.98F HX  84
WISC RAPIDS    PTSUNNY   82  66  58 SW9       29.98F HX  84
CAMP DOUGLAS   PTSUNNY   81  66  61 SW7       29.97F HX  83
$$

WIZ011>013-019>022-031-037>040-048>050-202100-
NORTHEAST WISCONSIN

CITY           SKY/WX    TMP DP  RH WIND       PRES   REMARKS
ANTIGO         SUNNY     79  65  62 SW16G22   29.96F HX  81
SHAWANO        CLOUDY    81  67  62 SW5       29.95F HX  83
OCONTO         PTSUNNY   79  65  63 SW8       29.95S HX  81
STURGEON BAY   CLOUDY    76  68  76 S12       29.97F
GREEN BAY      CLOUDY    77  69  76 S10       29.97F
MANITOWOC      PTSUNNY   76  66  71 S12       29.99F
APPLETON       CLOUDY    79  64  61 SW13      29.97F HX  81
CLINTONVILLE   CLOUDY    79  64  61 SW10      29.97S HX  81
OSHKOSH        CLOUDY    79  68  69 S13       29.98F HX  81
$$

WIZ032>034-041-042-053>061-202100-
SOUTHWEST WISCONSIN

CITY           SKY/WX    TMP DP  RH WIND       PRES   REMARKS
LA CROSSE      SUNNY     88  64  44 SW8       29.94F HX  89
SPARTA         SUNNY     82  65  56 W7        29.96F HX  83
VIROQUA        SUNNY     79  67  67 CALM      29.99F HX  81
BOSCOBEL       CLOUDY    80  65  59 NE5       29.96F HX  82
PRAIRIE DU CHI CLOUDY    80  63  56 NE3       29.95F HX  81
PLATTEVILLE    CLOUDY    76  69  79 E10       29.97F
$$

WIZ056-057-062-063-064-067-068-202100-
SOUTH CENTRAL WISCONSIN

CITY           SKY/WX    TMP DP  RH WIND       PRES   REMARKS
REEDSBURG      CLOUDY    79  65  63 S8        29.98S HX  81
BARABOO/DELLS  CLOUDY    80  63  56 SW8       29.99S HX  81
LONE ROCK      CLOUDY    79  68  69 E6        29.97F HX  81
MINERAL POINT  CLOUDY    79  68  69 E6        29.98F HX  81
MADISON        CLOUDY    78  65  63 SW5       30.00S HX  80
MIDDLETON      CLOUDY    80  66  62 CALM      30.00F HX  82
WATERTOWN      CLOUDY    78  69  72 SW7       30.00F HX  80
MONROE         CLOUDY    75  64  69 NE3       30.00F
JANESVILLE     CLOUDY    81  66  61 CALM      30.01F HX  83
$$

WIZ051-052-058>065-066-070>072-202100-
SOUTHEAST WISCONSIN

CITY           SKY/WX    TMP DP  RH WIND       PRES   REMARKS
MILWAUKEE      CLOUDY    84  66  54 W7        30.00F HX  86
WAUKESHA       MOSUNNY   79  64  61 SW6       30.02F HX  81
MILWAUKEE/TIMM SUNNY     81  63  54 SW8       30.01F HX  82
RACINE         PTSUNNY   78  66  66 SE9       30.03S HX  80
KENOSHA        PTSUNNY   83  67  58 SW8       30.02S HX  85
FOND DU LAC    CLOUDY    79  66  64 SW10      29.99F HX  81
SHEBOYGAN      MOSUNNY   80  71  74 S10       29.99F HX  84
WEST BEND      CLOUDY    79  66  65 SW8       30.01S HX  81
JUNEAU         CLOUDY    77  68  72 SW5       30.01F
$$

LSZ147-162-202100-
LAKE SUPERIOR

STATION/POSITION TIME  TEMP    WIND        PRES    WAVE
                       AIR SEA DIR/SP/G            HT/PER
                 (UTC) (F)     (DEG/KT/KT) (MB)    (FT/S)
W MID LAKE BUOY  1950   65 60  260/ 17/ 21 1009.8F   1/ 3
DEVILS ISLAND    2000   69     230/ 16/ 19 1010.9F
SAXON HARBOR     1940   80     240/ 11/ 17 1011.2S
$$

LMZ867-665-643>646-202100-
LAKE MICHIGAN

STATION/POSITION TIME  TEMP    WIND        PRES    WAVE
                       AIR SEA DIR/SP/G            HT/PER
                 (UTC) (F)     (DEG/KT/KT) (MB)    (FT/S)
S GREEN BAY BUOY 2000   74 72  210/ 10/ 12 1014.2
N MID LAKE BUOY  1950   69 67  180/ 16/ 17 1014.8F   2/ 4
NORTHPORT PIER   1940   75     160/  6/ 13 1013.9F
KEWAUNEE LAKESHO 1954   69     190/ 11/ 12 1014.5F
SHEBOYGAN LAKESH 2000   71     170/ 14/ 14 1015.2F
PORT WASHINGTON  1940   76     180/  4/  8 1016.9S
ATWATER BUOY     1909   72 71  150/ 12/ 14 1016.2F
MILWAUKEE LAKESH 2000   72     140/ 13/ 15   N/A
S MID LAKE BUOY  1950   73 72  130/  6/  8 1016.6F   1/ 4
KENOSHA   LAKESH 2000   74     180/  9/ 10 1015.9
$$

TC  - TEMPERATURE IN CELSIUS
VSB - VISIBILITY IN STATUTE MILES
WCI - WIND CHILL INDEX
HX  - HEAT INDEX




USA.gov is the U.S. government's official web portal to all federal, state and local government web resources and services.